Wind_Speed
19 18 17 16 14 15 16 14 14 12 9 8 7 6 5 6 8 8 7 11 15 14 14 14 14 14 15 15 14 14 13 13 12 11 11 11 10 10 9 9 9 8
20 20 20 18 15 16 15 14 13 11 10 9 8 6 6 8 9 8 9 13 15 14 14 14 15 16 16 15 14 14 13 13 12 12 11 11 11 10 9 8 8 8
22 21 22 20 17 17 16 15 15 12 9 9 7 5 7 10 10 10 13 15 15 15 15 15 16 16 16 16 15 14 14 13 12 12 11 11 11 10 9 9 8 8
23 24 23 21 19 18 16 15 16 13 9 7 6 6 6 10 10 12 16 16 16 16 16 16 17 17 16 16 15 14 14 13 12 12 11 11 10 9 9 8 8 9
25 24 22 21 20 17 16 15 15 14 11 7 7 7 6 10 12 15 18 17 16 16 16 17 17 17 17 16 15 14 14 13 12 11 11 10 9 9 9 9 9 9
26 25 23 23 21 18 16 16 16 15 11 8 8 7 9 14 16 17 18 17 17 17 17 18 17 17 17 16 15 15 14 13 12 11 10 9 9 9 10 9 8 8
28 27 26 24 22 19 18 18 18 15 11 9 8 8 12 17 18 18 18 17 17 17 17 17 17 17 17 16 15 15 14 13 12 11 10 9 9 9 10 10 9 8
30 29 27 25 23 21 20 20 19 15 12 10 8 9 14 18 18 18 17 17 17 17 17 17 17 17 17 16 15 14 13 13 12 11 9 9 9 9 9 9 9 9
31 29 27 26 24 22 21 21 20 17 14 11 9 11 17 18 18 18 17 17 17 17 18 17 16 17 16 15 14 13 12 12 12 11 10 10 9 8 8 9 9 9
30 29 28 27 25 24 23 22 20 17 14 11 10 14 19 18 18 18 17 17 17 17 18 17 16 16 15 15 14 13 12 11 11 10 10 9 8 8 8 8 8 8
31 29 29 28 26 25 25 23 20 15 12 12 12 16 20 19 18 17 17 18 17 17 17 16 15 15 15 15 14 13 12 11 10 10 10 10 9 8 8 8 7 6
32 30 29 29 28 27 26 23 18 12 11 12 13 17 20 19 19 17 16 17 16 16 16 15 15 14 14 14 14 14 13 12 12 11 10 10 9 8 8 8 7 6
31 29 29 29 28 28 26 22 17 12 11 13 15 18 20 19 18 17 15 15 15 15 14 14 13 13 13 13 14 14 14 13 13 11 10 10 9 7 7 7 7 6
30 28 27 28 28 27 25 21 15 12 13 15 17 19 20 19 18 17 16 14 13 13 13 13 13 13 13 13 13 14 14 13 13 12 11 10 10 8 8 7 7 6
29 28 27 27 27 27 25 19 14 13 16 17 19 22 23 22 20 20 18 14 12 12 11 12 13 13 14 15 13 14 14 13 13 12 11 10 9 9 8 8 6 5
30 28 27 28 28 26 24 19 14 15 18 20 21 25 27 25 23 22 20 17 15 16 15 14 14 14 16 17 16 14 14 13 12 12 10 9 9 8 8 7 6 6
31 30 28 28 27 26 24 20 16 16 19 21 22 24 27 26 23 22 22 21 21 21 21 20 19 18 19 19 19 17 14 12 12 11 10 9 8 8 7 6 7 6
31 29 28 28 28 27 25 23 19 18 21 22 21 23 25 25 24 22 22 23 23 23 23 21 21 21 20 19 18 17 16 14 11 10 10 9 8 7 6 6 7 7
28 27 27 28 26 25 24 22 20 22 25 23 21 23 26 26 25 23 23 25 25 24 23 21 22 21 19 18 18 17 17 16 11 9 10 9 7 7 8 8 8 6
27 26 27 28 26 23 22 22 22 25 26 23 21 24 26 26 25 23 24 24 24 23 21 20 21 20 18 19 18 17 18 17 12 8 9 8 8 11 12 12 9 6
28 28 29 28 25 22 23 25 25 26 26 24 23 24 25 25 24 23 24 24 23 22 20 19 20 21 19 19 18 18 19 18 14 9 8 10 12 14 13 11 10 10
30 30 30 27 23 24 26 27 27 27 26 25 23 24 25 25 24 24 24 23 23 21 19 19 22 21 20 19 19 19 19 20 16 11 11 13 14 12 10 9 10 10
31 31 29 26 24 26 28 28 28 27 25 24 23 25 26 26 25 24 23 23 23 21 19 19 22 22 20 20 20 20 20 20 16 12 12 12 11 10 9 9 11 10
32 31 29 27 27 28 29 30 29 27 25 24 24 26 26 25 24 23 22 23 23 22 20 19 21 21 20 20 20 20 19 18 15 10 9 9 9 10 9 10 11 10
32 31 30 30 29 29 30 29 27 26 25 25 25 25 25 24 21 19 21 24 23 21 21 21 21 21 21 21 20 19 18 17 14 9 8 9 9 10 10 10 11 9
32 31 32 32 30 29 28 27 27 27 27 28 27 24 22 23 22 20 21 23 23 22 23 24 23 22 21 21 20 19 18 18 16 10 8 10 10 9 10 11 11 9
Wind_Direction
200 202 201 195 187 186 187 185 184 183 177 175 180 179 177 178 172 161 162 181 187 184 180 178 173 170 167 163 161 159 158 157 154 153 153 152 146 139 136 131 130 131
198 198 196 193 187 184 185 182 180 180 176 176 183 182 175 175 169 162 168 178 182 181 177 174 170 168 166 161 159 158 157 158 156 156 154 148 142 136 134 133 134 133
194 195 196 194 191 187 183 181 178 177 176 178 193 199 175 169 167 164 171 177 180 178 175 172 170 168 165 160 158 158 159 160 158 155 152 145 141 139 138 139 138 134
192 195 197 197 199 194 185 183 185 189 192 199 240 249 190 172 169 169 176 180 179 177 174 172 170 168 164 160 160 162 161 160 156 149 146 144 142 143 143 141 138 131
194 194 194 197 200 197 191 191 197 203 206 225 263 261 201 183 180 177 181 181 177 176 175 173 172 168 164 161 162 165 162 157 152 145 144 144 145 146 143 138 134 129
195 193 192 197 199 196 194 195 201 206 209 234 262 253 206 192 187 183 184 183 179 177 176 174 172 169 166 164 165 165 160 154 148 143 145 146 147 148 142 136 131 127
195 195 194 197 198 197 198 200 204 207 214 237 256 243 208 191 185 186 186 183 180 177 176 175 172 171 168 165 166 164 158 153 148 144 148 150 148 148 144 138 130 123
196 196 195 196 197 197 200 203 205 208 218 237 250 227 198 186 185 187 184 182 178 175 175 174 173 174 171 166 165 163 159 154 149 148 153 153 149 147 145 140 133 128
198 195 193 195 198 197 199 203 206 208 216 232 239 210 188 181 186 185 179 178 176 173 174 173 175 175 170 166 164 162 162 157 153 155 155 151 145 143 144 139 134 133
197 195 193 195 197 197 200 202 204 207 213 222 221 197 183 181 185 181 177 176 174 175 176 174 176 175 169 166 163 161 162 158 157 157 150 145 145 144 144 140 134 131
196 197 195 194 195 198 201 202 201 202 205 213 207 187 180 184 183 175 176 178 174 175 177 175 177 176 171 169 165 162 163 160 158 158 154 156 159 157 153 146 141 136
198 198 194 193 194 198 200 199 197 191 190 202 197 182 181 185 179 173 176 178 175 175 177 177 177 174 173 172 167 165 165 164 165 165 166 165 160 157 156 151 151 153
199 195 193 195 196 197 197 195 192 183 179 189 184 178 183 184 176 172 173 172 172 174 175 175 173 171 174 174 171 170 170 171 173 171 171 167 156 155 160 157 157 159
196 191 195 199 196 195 195 192 187 173 173 182 181 180 185 180 173 173 172 170 173 173 173 175 173 171 173 174 174 176 176 177 176 172 173 172 163 164 169 163 159 165
191 191 196 197 195 195 193 188 177 167 176 187 185 185 185 178 176 180 173 166 170 169 171 179 176 175 178 174 176 182 181 178 176 174 176 175 169 174 174 163 170 190
190 191 195 196 195 194 190 183 172 170 184 194 193 193 193 186 185 185 174 171 180 180 183 188 185 189 191 180 176 181 181 181 180 176 177 177 174 180 180 171 189 215
191 189 194 196 193 191 190 188 181 178 189 201 205 203 201 198 198 198 193 194 196 195 198 197 193 200 202 191 182 179 176 180 184 178 177 183 181 183 193 190 195 219
192 190 195 194 190 194 200 203 203 202 204 211 213 207 204 205 208 209 208 205 199 199 201 198 198 204 205 197 192 186 179 177 180 183 180 183 188 187 197 210 207 218
194 193 195 194 195 202 207 206 208 214 216 216 212 206 204 208 211 210 207 203 199 200 200 199 204 208 202 197 197 195 187 174 169 192 191 181 193 197 195 209 215 222
200 199 199 200 204 208 206 202 205 215 219 217 213 208 206 208 212 209 204 202 200 199 198 202 210 208 200 198 196 193 192 178 165 189 200 186 199 210 206 207 209 205
200 202 203 206 208 208 204 203 209 216 219 218 216 211 207 207 208 204 201 200 200 200 198 204 212 207 200 200 196 190 193 186 172 176 198 203 213 216 211 209 211 203
200 205 207 208 210 208 205 206 213 218 219 218 213 207 206 207 205 202 202 201 201 200 197 202 213 209 199 199 198 191 191 191 183 183 199 211 219 219 208 208 218 212
204 208 208 209 212 209 205 208 213 217 218 214 207 204 206 207 204 203 203 201 200 197 194 204 214 209 199 200 200 193 192 194 192 194 203 210 218 217 208 214 222 213
207 209 209 211 212 208 207 209 209 210 212 209 204 203 205 203 201 201 201 201 201 197 196 208 214 207 201 203 201 195 195 195 191 193 202 206 217 215 205 218 230 221
211 211 211 213 211 208 209 210 207 207 207 203 200 201 201 198 195 194 197 200 199 197 201 210 213 208 204 205 201 197 196 191 181 186 209 208 213 217 207 218 236 231
214 214 216 216 212 208 208 207 205 204 203 199 198 196 194 193 191 192 199 202 199 201 209 215 214 209 205 205 201 195 196 191 176 177 215 216 208 214 213 218 236 240
Height
1528 1532 1535 1535 1535 1536 1536 1537 1539 1540 1541 1542 1543 1543 1544 1544 1543 1543 1543 1543 1543 1544 1545 1546 1546 1547 1548 1548 1549 1550 1550 1551 1551 1552 1552 1552 1553 1553 1553 1553 1553 1553
1527 1531 1534 1534 1534 1534 1535 1536 1538 1539 1540 1542 1542 1542 1543 1543 1542 1542 1542 1542 1543 1544 1545 1546 1546 1547 1548 1548 1549 1550 1550 1551 1551 1552 1552 1552 1553 1553 1553 1553 1553 1553
1526 1530 1531 1532 1532 1533 1534 1535 1536 1538 1539 1540 1540 1541 1541 1541 1541 1541 1541 1542 1543 1544 1544 1545 1546 1547 1548 1548 1549 1550 1550 1551 1551 1552 1552 1552 1552 1553 1553 1553 1553 1554
1524 1527 1528 1529 1530 1531 1532 1533 1535 1536 1537 1538 1538 1539 1539 1539 1539 1540 1541 1542 1543 1543 1544 1545 1546 1547 1548 1548 1549 1550 1550 1551 1551 1552 1552 1552 1553 1553 1553 1553 1553 1554
1522 1524 1525 1527 1527 1529 1530 1531 1533 1534 1536 1536 1537 1537 1537 1538 1538 1539 1540 1541 1542 1543 1544 1545 1545 1546 1547 1548 1548 1549 1550 1550 1551 1551 1552 1552 1553 1553 1553 1554 1554 1554
1520 1521 1523 1524 1526 1528 1529 1530 1532 1533 1534 1536 1536 1536 1536 1537 1538 1539 1540 1541 1541 1542 1543 1544 1545 1546 1547 1547 1548 1549 1550 1550 1550 1551 1552 1552 1553 1553 1553 1554 1554 1554
1517 1519 1521 1523 1524 1526 1528 1529 1531 1532 1533 1534 1535 1535 1535 1536 1537 1538 1539 1540 1541 1542 1543 1544 1545 1545 1546 1547 1548 1549 1549 1550 1550 1551 1552 1552 1553 1553 1553 1553 1554 1554
1515 1517 1519 1521 1523 1525 1526 1528 1529 1531 1532 1533 1534 1534 1535 1536 1537 1538 1539 1540 1541 1542 1543 1544 1544 1545 1546 1547 1547 1548 1549 1549 1550 1551 1552 1552 1553 1553 1553 1553 1553 1554
1513 1515 1517 1520 1521 1523 1525 1526 1528 1529 1531 1532 1532 1533 1534 1536 1537 1538 1539 1540 1541 1542 1542 1543 1544 1545 1546 1546 1547 1548 1549 1549 1550 1551 1552 1552 1553 1553 1553 1553 1553 1554
1511 1513 1516 1518 1519 1522 1523 1525 1526 1528 1530 1531 1531 1533 1534 1535 1536 1537 1539 1539 1540 1541 1542 1543 1543 1544 1545 1546 1546 1547 1548 1549 1550 1551 1552 1552 1553 1553 1553 1553 1553 1554
1509 1511 1514 1516 1518 1520 1521 1523 1525 1527 1528 1529 1530 1532 1533 1534 1535 1537 1538 1539 1540 1541 1542 1542 1543 1544 1544 1545 1546 1547 1548 1549 1550 1551 1551 1552 1552 1553 1553 1554 1554 1554
1506 1509 1512 1514 1516 1518 1520 1522 1524 1526 1527 1528 1530 1531 1532 1533 1535 1537 1538 1538 1540 1541 1541 1542 1543 1543 1544 1545 1545 1546 1547 1548 1549 1550 1551 1551 1552 1553 1553 1553 1554 1554
1504 1507 1510 1512 1514 1516 1518 1521 1523 1525 1526 1527 1529 1530 1531 1533 1535 1536 1538 1539 1540 1541 1542 1542 1543 1544 1544 1545 1545 1546 1547 1548 1548 1549 1550 1551 1552 1552 1553 1553 1554 1554
1502 1505 1508 1510 1512 1515 1517 1519 1521 1524 1525 1526 1527 1529 1530 1532 1533 1535 1537 1539 1540 1541 1542 1543 1543 1544 1544 1544 1545 1546 1546 1547 1548 1548 1549 1550 1551 1552 1552 1553 1553 1553
1500 1503 1506 1508 1511 1513 1516 1518 1520 1522 1523 1524 1525 1526 1528 1529 1531 1532 1535 1538 1540 1541 1543 1544 1544 1544 1544 1544 1545 1546 1546 1547 1548 1548 1549 1550 1551 1551 1552 1552 1553 1552
1498 1501 1504 1506 1509 1511 1514 1516 1518 1520 1521 1521 1522 1523 1524 1526 1528 1530 1533 1536 1537 1538 1540 1541 1543 1544 1543 1543 1544 1545 1546 1547 1547 1548 1549 1549 1550 1551 1551 1552 1552 1552
1496 1499 1502 1505 1507 1509 1511 1514 1516 1517 1518 1519 1520 1521 1523 1524 1526 1528 1530 1532 1533 1534 1535 1537 1539 1541 1541 1542 1543 1544 1545 1546 1547 1548 1548 1549 1550 1551 1551 1552 1552 1552
1494 1497 1500 1503 1505 1507 1509 1511 1514 1515 1516 1517 1518 1520 1522 1523 1525 1526 1527 1529 1531 1532 1534 1536 1536 1538 1540 1541 1542 1543 1544 1545 1546 1547 1548 1549 1550 1551 1552 1552 1551 1551
1493 1495 1498 1500 1502 1505 1508 1510 1512 1513 1513 1515 1517 1518 1520 1522 1523 1524 1526 1527 1529 1531 1533 1535 1535 1537 1538 1540 1541 1542 1543 1544 1546 1547 1547 1549 1550 1551 1552 1551 1550 1550
1491 1493 1496 1498 1500 1503 1506 1508 1509 1510 1510 1512 1514 1516 1518 1520 1522 1523 1525 1526 1528 1530 1532 1533 1534 1536 1537 1538 1539 1541 1542 1543 1544 1546 1547 1548 1549 1549 1549 1549 1549 1550
1489 1491 1493 1495 1498 1501 1504 1506 1507 1507 1508 1510 1512 1514 1517 1519 1521 1522 1524 1526 1528 1530 1531 1532 1533 1534 1536 1537 1538 1539 1541 1542 1543 1545 1546 1547 1547 1547 1547 1548 1548 1549
1487 1489 1491 1494 1497 1499 1501 1503 1504 1505 1505 1507 1509 1513 1516 1518 1520 1521 1523 1525 1527 1529 1530 1531 1531 1532 1534 1535 1537 1538 1539 1540 1541 1543 1545 1545 1545 1546 1547 1547 1547 1547
1485 1486 1489 1492 1494 1497 1499 1501 1502 1503 1504 1506 1508 1511 1514 1517 1519 1520 1522 1524 1525 1527 1529 1529 1529 1531 1533 1534 1535 1536 1538 1539 1541 1542 1543 1544 1545 1545 1546 1546 1546 1546
1483 1485 1488 1490 1492 1495 1496 1498 1500 1502 1504 1506 1508 1510 1513 1515 1517 1519 1521 1522 1524 1526 1527 1528 1528 1530 1532 1533 1534 1535 1536 1538 1540 1541 1543 1544 1544 1545 1545 1545 1545 1545
1481 1484 1486 1488 1490 1493 1494 1496 1499 1501 1503 1505 1508 1510 1512 1515 1517 1519 1520 1520 1522 1524 1525 1525 1526 1528 1530 1531 1533 1534 1535 1537 1539 1541 1543 1543 1544 1544 1545 1545 1544 1544
1480 1482 1484 1486 1489 1491 1493 1496 1498 1500 1501 1504 1506 1509 1511 1513 1515 1517 1519 1519 1521 1522 1523 1523 1524 1526 1528 1530 1532 1533 1534 1535 1537 1540 1542 1543 1543 1543 1544 1544 1543 1543